Weather History for KMHT - December, 2012

Change the Weather History Date:

Sunday, December 16, 2012

  Actual Average Record
Temperature  
Mean Temperature 25 °F -  
Max Temperature 26 °F 35 °F 53 °F (2008)
Min Temperature 24 °F 17 °F 0 °F (1949)
Degree Days  
Heating Degree Days 40    
Moisture  
Dew Point 18 °F    
Average Humidity 76    
Maximum Humidity 91    
Minimum Humidity 53    
Precipitation  
Precipitation 0.06 in - - ()
Sea Level Pressure  
Sea Level Pressure 30.24 in    
Wind  
Wind Speed 6 mph (NE)    
Max Wind Speed 10 mph    
Max Gust Speed -    
Visibility 5 miles    
Events Fog , Rain , Snow    
Averages and records for this station are not official NWS values.
T = Trace of Precipitation, MM = Missing Value Source: NWS Daily Summary

Daily Weather History Graph

Daily Weather History Graph

Search for Another Location

Airport or City:

Trip Planner

Search our weather history database for the weather conditions in past years. The results will help you decide how hot, cold, wet, or windy it might be!

Date:

Astronomy

Dec. 16, 2012 Rise Set
Actual Time 7:10 AM EST 4:12 PM EST
Civil Twilight 6:38 AM EST 4:44 PM EST
Nautical Twilight 6:02 AM EST 5:20 PM EST
Astronomical Twilight 5:28 AM EST 5:55 PM EST
Moon 9:38 AM EST (12/16) 8:28 PM EST (12/16)
Length of Visible Light 10h 06m
Length of Day
9h 01m
Waxing Crescent, 16% of the Moon is Illuminated
Dec 16
Waxing Crescent
Dec 20
First Quarter
Dec 28
Full
Jan 4
Last Quarter
Jan 11
New

Hourly Weather History & Observations

Time (EST) Temp. Windchill Dew Point Humidity Pressure Visibility Wind Dir Wind Speed Gust Speed Precip Events Conditions
12:53 AM 26.1 °F 19.4 °F 12.0 °F 55% 30.39 in 10.0 mi ENE 5.8 mph - N/A   Overcast
1:53 AM 26.1 °F 18.4 °F 12.0 °F 55% 30.38 in 10.0 mi NE 6.9 mph - N/A   Overcast
2:53 AM 26.1 °F 20.5 °F 10.9 °F 53% 30.38 in 10.0 mi North 4.6 mph - N/A   Overcast
3:53 AM 25.0 °F 18.1 °F 10.9 °F 55% 30.37 in 10.0 mi NNE 5.8 mph - N/A   Overcast
4:53 AM 24.1 °F 14.4 °F 10.9 °F 57% 30.37 in 10.0 mi NNE 9.2 mph - N/A   Overcast
5:53 AM 24.1 °F 18.2 °F 10.9 °F 57% 30.37 in 10.0 mi NE 4.6 mph - N/A   Overcast
6:53 AM 24.1 °F 16.0 °F 12.0 °F 60% 30.36 in 10.0 mi NE 6.9 mph - N/A   Overcast
7:53 AM 24.1 °F 17.0 °F 12.0 °F 60% 30.34 in 10.0 mi NNE 5.8 mph - N/A   Overcast
8:53 AM 24.1 °F 16.0 °F 12.0 °F 60% 30.37 in 10.0 mi NE 6.9 mph - N/A   Overcast
9:53 AM 25.0 °F 14.8 °F 12.9 °F 60% 30.36 in 10.0 mi NE 10.4 mph - N/A   Overcast
10:53 AM 25.0 °F 16.3 °F 14.0 °F 63% 30.34 in 10.0 mi ENE 8.1 mph - N/A   Overcast
11:53 AM 25.0 °F 18.1 °F 16.0 °F 69% 30.31 in 10.0 mi ENE 5.8 mph - N/A   Overcast
12:53 PM 25.0 °F 18.1 °F 17.1 °F 72% 30.29 in 6.0 mi NE 5.8 mph - 0.00 in Snow Light Snow
1:10 PM 24.8 °F 17.9 °F 17.6 °F 74% 30.22 in 2.0 mi NE 5.8 mph - 0.00 in Snow Light Snow
1:47 PM 24.8 °F 17.9 °F 19.4 °F 80% 30.20 in 2.0 mi NNE 5.8 mph - 0.01 in Snow Light Snow
1:53 PM 24.1 °F 17.0 °F 19.9 °F 84% 30.26 in 0.5 mi NE 5.8 mph - 0.01 in Fog , Snow Light Snow
2:13 PM 24.8 °F 17.9 °F 19.4 °F 80% 30.19 in 1.0 mi NNE 5.8 mph - 0.00 in Snow Light Snow
2:50 PM 24.8 °F 19.1 °F 19.4 °F 80% 30.19 in 4.0 mi NNE 4.6 mph - 0.00 in   Overcast
2:53 PM 24.1 °F 18.2 °F 19.9 °F 84% 30.25 in 4.0 mi NNE 4.6 mph - 0.00 in   Overcast
3:11 PM 24.8 °F 17.9 °F 19.4 °F 80% 30.19 in 2.5 mi NNE 5.8 mph - 0.01 in Snow Light Snow
3:53 PM 24.1 °F 18.2 °F 19.9 °F 84% 30.25 in 2.5 mi North 4.6 mph - 0.01 in Snow Light Snow
4:27 PM 24.8 °F 19.1 °F 21.2 °F 86% 30.17 in 2.5 mi NE 4.6 mph - 0.01 in   Light Freezing Drizzle
4:49 PM 24.8 °F 16.9 °F 19.4 °F 80% 30.16 in 2.5 mi NE 6.9 mph - 0.01 in Rain Light Freezing Rain
4:53 PM 24.1 °F 18.2 °F 19.9 °F 84% 30.22 in 2.5 mi NNE 4.6 mph - 0.01 in Rain Light Freezing Rain
5:53 PM 24.1 °F 16.0 °F 19.9 °F 84% 30.23 in 2.5 mi NE 6.9 mph - 0.01 in Rain Light Freezing Rain
5:56 PM 24.8 °F 16.1 °F 21.2 °F 86% 30.16 in 2.5 mi NNE 8.1 mph - 0.00 in Snow Light Snow
6:02 PM 24.8 °F 17.9 °F 21.2 °F 86% 30.16 in 3.0 mi NNE 5.8 mph - 0.00 in Snow Light Snow
6:32 PM 24.8 °F 20.5 °F 21.2 °F 86% 30.16 in 3.0 mi NE 3.5 mph - 0.00 in Rain Light Freezing Rain
6:53 PM 24.1 °F 16.0 °F 21.0 °F 88% 30.21 in 7.0 mi NE 6.9 mph - 0.00 in Rain Light Freezing Rain
6:55 PM 24.8 °F 16.9 °F 21.2 °F 86% 30.15 in 8.0 mi NE 6.9 mph - 0.00 in Rain Light Freezing Rain
7:53 PM 24.1 °F 14.4 °F 21.0 °F 88% 30.21 in 7.0 mi NE 9.2 mph - 0.00 in   Overcast
8:53 PM 25.0 °F 17.1 °F 21.9 °F 88% 30.19 in 2.0 mi NNE 6.9 mph - 0.00 in Snow Light Snow
8:59 PM 24.8 °F 16.9 °F 21.2 °F 86% 30.13 in 1.8 mi NNE 6.9 mph - 0.00 in Snow Light Snow
9:15 PM 24.8 °F 16.9 °F 21.2 °F 86% 30.12 in 2.0 mi NNE 6.9 mph - 0.00 in Snow Light Snow
9:17 PM 24.8 °F 16.9 °F 21.2 °F 86% 30.13 in 1.8 mi NNE 6.9 mph - 0.00 in Snow Light Snow
9:53 PM 25.0 °F 16.3 °F 21.9 °F 88% 30.19 in 1.5 mi NNE 8.1 mph - 0.01 in Snow Light Snow
10:33 PM 24.8 °F 16.1 °F 21.2 °F 86% 30.14 in 1.0 mi North 8.1 mph - 0.00 in Snow Light Snow
10:53 PM 24.1 °F 16.0 °F 21.9 °F 91% 30.19 in 0.8 mi NNE 6.9 mph - 0.01 in Snow Light Snow
11:53 PM 25.0 °F 15.5 °F 21.9 °F 88% 30.17 in 1.5 mi NNE 9.2 mph - 0.00 in Snow Light Snow